datetime,storage
1984-03-20,1455.0
1984-03-21,2572.0
1984-03-22,5182.0
1984-03-23,6828.0
1984-03-24,8361.0
1984-03-25,10080.0
1984-03-26,11537.0
1984-03-27,12867.0
1984-03-28,13810.0
1984-03-29,14741.11
1984-03-30,15558.0
1984-03-31,16505.35
1984-04-01,17336.0
1984-04-02,18188.85
1984-04-03,18947.0
1984-04-04,19777.91
1984-04-05,20469.0
1984-04-06,21737.28
1984-04-07,22916.0
1984-04-08,25446.8
1984-04-09,27982.0
1984-04-10,27842.0
1984-04-11,27704.0
1984-04-12,27014.0
1984-04-13,27842.0
1984-04-14,28824.0
1984-04-15,29249.0
1984-04-16,30036.0
1984-04-17,30036.0
1984-04-18,29606.0
1984-04-19,30613.0
1984-04-20,28966.0
1984-04-21,28966.0
1984-04-22,28613.0
1984-04-23,28191.0
1984-04-24,28824.0
1984-04-25,30904.0
1984-04-26,30759.0
1984-04-27,29821.0
1984-04-28,29392.0
1984-04-29,29892.0
1984-04-30,30396.0
1984-05-01,30977.0
1984-05-02,31050.0
1984-05-03,31269.0
1984-05-04,31784.0
1984-05-05,32976.0
1984-05-06,32826.0
1984-05-07,31858.0
1984-05-08,31710.0
1984-05-09,32080.0
1984-05-10,32901.0
1984-05-11,33429.0
1984-05-12,35272.0
1984-05-13,38142.0
1984-05-14,40553.0
1984-05-15,44399.0
1984-05-16,49857.0
1984-05-17,54181.0
1984-05-18,56585.0
1984-05-19,57757.0
1984-05-20,58294.0
1984-05-21,60032.0
1984-05-22,62690.0
1984-05-23,64839.0
1984-05-24,68081.0
1984-05-25,70934.0
1984-05-26,73126.0
1984-05-27,73991.0
1984-05-28,73867.0
1984-05-29,73003.0
1984-05-30,70934.0
1984-05-31,70693.0
1984-06-01,68669.0
1984-06-02,67963.0
1984-06-03,66564.0
1984-06-04,65297.0
1984-06-05,64725.0
1984-06-06,65756.0
1984-06-07,65526.0
1984-06-08,66217.0
1984-06-09,65411.0
1984-06-10,65182.0
1984-06-11,64043.0
1984-06-12,63703.0
1984-06-13,64383.0
1984-06-14,64953.0
1984-06-15,65182.0
1984-06-16,65641.0
1984-06-17,65756.0
1984-06-18,65297.0
1984-06-19,64953.0
1984-06-20,64839.0
1984-06-21,65068.0
1984-06-22,64953.0
1984-06-23,64611.0
1984-06-24,64043.0
1984-06-25,63590.0
1984-06-26,64043.0
1984-06-27,64725.0
1984-06-28,65068.0
1984-06-29,64725.0
1984-06-30,64611.0
1984-07-01,64497.0
1984-07-02,64043.0
1984-07-03,63929.0
1984-07-04,63703.0
1984-07-05,63703.0
1984-07-06,63477.0
1984-07-07,63364.0
1984-07-08,63308.0
1984-07-09,63184.0
1984-07-10,63251.0
1984-07-11,63195.0
1984-07-12,63072.0
1984-07-13,62948.0
1984-07-14,62858.0
1984-07-15,62802.0
1984-07-16,62690.0
1984-07-17,62555.0
1984-07-18,62466.0
1984-07-19,62298.0
1984-07-20,62131.0
1984-07-21,62109.0
1984-07-22,61897.0
1984-07-23,61686.0
1984-07-24,61619.0
1984-07-25,61497.0
1984-07-26,61287.0
1984-07-27,61275.0
1984-07-28,61132.0
1984-07-29,61099.0
1984-07-30,61021.0
1984-07-31,61187.0
1984-08-01,61055.0
1984-08-02,60944.0
1984-08-03,60536.0
1984-08-04,60032.0
1984-08-05,59682.0
1984-08-06,59246.0
1984-08-07,58997.0
1984-08-08,58618.0
1984-08-09,58208.0
1984-08-10,57778.0
1984-08-11,57382.0
1984-08-12,56956.0
1984-08-13,56712.0
1984-08-14,56395.0
1984-08-15,56047.0
1984-08-16,55847.0
1984-08-17,55135.0
1984-08-18,54253.0
1984-08-19,53841.0
1984-08-20,52748.0
1984-08-21,51769.0
1984-08-22,51020.0
1984-08-23,49945.0
1984-08-24,49010.0
1984-08-25,49010.0
1984-08-26,49000.0
1984-08-27,47868.0
1984-08-28,48470.0
1984-08-29,48039.0
1984-08-30,47753.0
1984-08-31,47639.0
1984-09-01,47573.0
1984-09-02,47573.0
1984-09-03,47630.0
1984-09-04,47525.0
1984-09-05,47421.0
1984-09-06,47279.0
1984-09-07,46752.0
1984-09-08,46267.0
1984-09-09,45832.0
1984-09-10,45675.0
1984-09-11,45491.0
1984-09-12,45427.0
1984-09-13,45253.0
1984-09-14,45125.0
1984-09-15,45052.0
1984-09-16,44851.0
1984-09-17,44988.0
1984-09-18,44961.0
1984-09-19,44861.0
1984-09-20,44788.0
1984-09-21,44670.0
1984-09-22,44534.0
1984-09-23,44435.0
1984-09-24,44363.0
1984-09-25,44308.0
1984-09-26,44237.0
1984-09-27,44129.0
1984-09-28,44057.0
1984-09-29,44039.0
1984-09-30,43949.0
1984-10-01,43860.0
1984-10-02,43753.0
1984-10-03,43628.0
1984-10-04,43682.0
1984-10-05,43637.0
1984-10-06,43592.0
1984-10-07,43468.0
1984-10-08,43362.0
1984-10-09,43238.0
1984-10-10,43149.0
1984-10-11,43061.0
1984-10-12,43017.0
1984-10-13,43017.0
1984-10-14,43035.0
1984-10-15,43061.0
1984-10-16,42973.0
1984-10-17,42885.0
1984-10-18,42841.0
1984-10-19,42841.0
1984-10-20,42709.0
1984-10-21,42595.0
1984-10-22,42473.0
1984-10-23,42359.0
1984-10-24,42272.0
1984-10-25,42185.0
1984-10-26,42142.0
1984-10-27,42055.0
1984-10-28,41925.0
1984-10-29,41751.0
1984-10-30,41536.0
1984-10-31,41493.0
1984-11-01,41544.0
1984-11-02,41338.0
1984-11-03,41312.0
1984-11-04,41303.0
1984-11-05,41149.0
1984-11-06,41064.0
1984-11-07,40970.0
1984-11-08,40893.0
1984-11-09,40808.0
1984-11-10,40808.0
1984-11-11,40808.0
1984-11-12,40723.0
1984-11-13,40723.0
1984-11-14,40680.0
1984-11-15,40808.0
1984-11-16,40927.0
1984-11-17,41004.0
1984-11-18,41115.0
1984-11-19,41235.0
1984-11-20,41278.0
1984-11-21,41587.0
1984-11-22,41691.0
1984-11-23,41691.0
1984-11-24,41691.0
1984-11-25,41691.0
1984-11-26,41691.0
1984-11-27,41795.0
1984-11-28,41812.0
1984-11-29,41898.0
1984-11-30,41994.0
1984-12-01,42029.0
1984-12-02,42055.0
1984-12-03,42107.0
1984-12-04,42255.0
1984-12-05,42333.0
1984-12-06,42377.0
1984-12-07,42455.0
1984-12-08,42560.0
1984-12-09,42683.0
1984-12-10,42753.0
1984-12-11,42885.0
1984-12-12,43026.0
1984-12-13,43149.0
1984-12-14,43273.0
1984-12-15,43450.0
1984-12-16,43513.0
1984-12-17,43592.0
1984-12-18,43655.0
1984-12-19,43708.0
1984-12-20,43744.0
1984-12-21,43780.0
1984-12-22,43815.0
1984-12-23,43833.0
1984-12-24,43869.0
1984-12-25,43913.0
1984-12-26,43941.0
1984-12-27,44381.0
1984-12-28,44489.0
1984-12-29,44579.0
1984-12-30,44824.0
1984-12-31,44997.0
1985-01-01,45079.0
1985-01-02,45161.0
1985-01-03,45189.0
1985-01-04,45207.0
1985-01-05,45262.0
1985-01-06,45372.0
1985-01-07,45463.0
1985-01-08,45601.0
1985-01-09,45721.0
1985-01-10,45804.0
1985-01-11,45915.0
1985-01-12,45961.0
1985-01-13,46008.0
1985-01-14,46054.0
1985-01-15,46082.0
1985-01-16,46100.0
1985-01-17,45684.0
1985-01-18,45097.0
1985-01-19,44399.0
1985-01-20,43833.0
1985-01-21,43255.0
1985-01-22,42639.0
1985-01-23,41881.0
1985-01-24,41484.0
1985-01-25,40748.0
1985-01-26,40358.0
1985-01-27,39636.0
1985-01-28,39070.0
1985-01-29,39161.0
1985-01-30,39211.0
1985-01-31,39244.0
1985-02-01,39269.0
1985-02-02,39286.0
1985-02-03,39302.0
1985-02-04,39319.0
1985-02-05,39385.0
1985-02-06,39610.0
1985-02-07,39494.0
1985-02-08,39535.0
1985-02-09,39594.0
1985-02-10,39485.0
1985-02-11,39719.0
1985-02-12,39736.0
1985-02-13,39752.0
1985-02-14,39794.0
1985-02-15,39836.0
1985-02-16,39895.0
1985-02-17,39954.0
1985-02-18,40029.0
1985-02-19,40105.0
1985-02-20,40215.0
1985-02-21,40299.0
1985-02-22,40426.0
1985-02-23,40511.0
1985-02-24,40604.0
1985-02-25,40672.0
1985-02-26,40765.0
1985-02-27,40859.0
1985-02-28,40978.0
1985-03-01,41141.0
1985-03-02,41303.0
1985-03-03,41493.0
1985-03-04,41674.0
1985-03-05,41562.0
1985-03-06,42167.0
1985-03-07,42142.0
1985-03-08,42298.0
1985-03-09,42586.0
1985-03-10,43780.0
1985-03-11,44462.0
1985-03-12,46809.0
1985-03-13,48730.0
1985-03-14,48759.0
1985-03-15,48058.0
1985-03-16,47336.0
1985-03-17,46593.0
1985-03-18,46174.0
1985-03-19,45740.0
1985-03-20,45354.0
1985-03-21,45317.0
1985-03-22,45061.0
1985-03-23,45097.0
1985-03-24,44752.0
1985-03-25,44561.0
1985-03-26,45189.0
1985-03-27,45989.0
1985-03-28,45822.0
1985-03-29,45116.0
1985-03-30,44915.0
1985-03-31,44661.0
1985-04-01,44399.0
1985-04-02,44363.0
1985-04-03,45629.0
1985-04-04,47072.0
1985-04-05,45850.0
1985-04-06,46621.0
1985-04-07,47925.0
1985-04-08,49204.0
1985-04-09,50368.0
1985-04-10,51589.0
1985-04-11,52687.0
1985-04-12,54398.0
1985-04-13,56068.0
1985-04-14,58759.0
1985-04-15,63297.0
1985-04-16,65561.0
1985-04-17,66680.0
1985-04-18,70368.0
1985-04-19,73151.0
1985-04-20,75516.0
1985-04-21,77695.0
1985-04-22,80455.0
1985-04-23,82860.0
1985-04-24,85923.0
1985-04-25,88904.0
1985-04-26,91784.0
1985-04-27,93690.0
1985-04-28,95754.0
1985-04-29,97842.0
1985-04-30,101229.0
1985-05-01,105190.0
1985-05-02,108253.0
1985-05-03,111223.0
1985-05-04,114941.0
1985-05-05,117742.0
1985-05-06,119414.0
1985-05-07,120604.0
1985-05-08,122006.0
1985-05-09,123586.0
1985-05-10,125068.0
1985-05-11,127303.0
1985-05-12,128335.0
1985-05-13,128757.0
1985-05-14,130416.0
1985-05-15,131369.0
1985-05-16,132188.0
1985-05-17,133051.0
1985-05-18,134332.0
1985-05-19,135285.0
1985-05-20,136162.0
1985-05-21,136943.0
1985-05-22,137445.0
1985-05-23,138029.0
1985-05-24,138554.0
1985-05-25,139792.0
1985-05-26,140628.0
1985-05-27,142084.0
1985-05-28,143634.0
1985-05-29,145281.0
1985-05-30,146983.0
1985-05-31,148827.0
1985-06-01,150066.0
1985-06-02,150838.0
1985-06-03,152349.0
1985-06-04,152479.0
1985-06-05,152544.0
1985-06-06,152804.0
1985-06-07,153412.0
1985-06-08,154000.0
1985-06-09,152392.0
1985-06-10,153173.0
1985-06-11,152500.0
1985-06-12,151980.0
1985-06-13,152825.0
1985-06-14,153412.0
1985-06-15,153412.0
1985-06-16,153347.0
1985-06-17,152956.0
1985-06-18,152804.0
1985-06-19,152804.0
1985-06-20,153281.0
1985-06-21,153368.0
1985-06-22,153521.0
1985-06-23,153368.0
1985-06-24,153130.0
1985-06-25,153260.0
1985-06-26,153565.0
1985-06-27,153281.0
1985-06-28,153260.0
1985-06-29,152738.0
1985-06-30,153826.0
1985-07-01,153826.0
1985-07-02,153848.0
1985-07-03,153651.0
1985-07-04,153478.0
1985-07-05,153238.0
1985-07-06,152956.0
1985-07-07,152761.0
1985-07-08,152587.0
1985-07-09,152349.0
1985-07-10,151786.0
1985-07-11,151679.0
1985-07-12,151527.0
1985-07-13,151376.0
1985-07-14,151140.0
1985-07-15,151679.0
1985-07-16,150945.0
1985-07-17,150817.0
1985-07-18,150688.0
1985-07-19,150688.0
1985-07-20,150666.0
1985-07-21,150623.0
1985-07-22,150559.0
1985-07-23,150559.0
1985-07-24,150559.0
1985-07-25,150602.0
1985-07-26,150559.0
1985-07-27,150559.0
1985-07-28,150451.0
1985-07-29,150559.0
1985-07-30,150559.0
1985-07-31,150623.0
1985-08-01,150623.0
1985-08-02,150623.0
1985-08-03,150451.0
1985-08-04,150451.0
1985-08-05,150408.0
1985-08-06,150216.0
1985-08-07,149809.0
1985-08-08,149381.0
1985-08-09,148955.0
1985-08-10,149126.0
1985-08-11,149041.0
1985-08-12,148700.0
1985-08-13,148657.0
1985-08-14,148444.0
1985-08-15,148105.0
1985-08-16,147978.0
1985-08-17,147660.0
1985-08-18,147554.0
1985-08-19,147342.0
1985-08-20,147173.0
1985-08-21,147132.0
1985-08-22,147194.0
1985-08-23,147152.0
1985-08-24,147047.0
1985-08-25,146920.0
1985-08-26,146772.0
1985-08-27,146667.0
1985-08-28,146562.0
1985-08-29,146604.0
1985-08-30,146583.0
1985-08-31,146583.0
1985-09-01,146414.0
1985-09-02,146604.0
1985-09-03,146520.0
1985-09-04,146709.0
1985-09-05,146645.0
1985-09-06,146562.0
1985-09-07,146498.0
1985-09-08,146478.0
1985-09-09,146478.0
1985-09-10,146478.0
1985-09-11,146351.0
1985-09-12,146414.0
1985-09-13,146625.0
1985-09-14,146836.0
1985-09-15,146794.0
1985-09-16,146709.0
1985-09-17,146794.0
1985-09-18,146814.0
1985-09-19,147257.0
1985-09-20,148317.0
1985-09-21,148721.0
1985-09-22,149019.0
1985-09-23,149147.0
1985-09-24,149275.0
1985-09-25,149211.0
1985-09-26,149211.0
1985-09-27,149211.0
1985-09-28,148955.0
1985-09-29,148870.0
1985-09-30,148572.0
1985-10-01,148487.0
1985-10-02,148402.0
1985-10-03,148359.0
1985-10-04,148338.0
1985-10-05,148317.0
1985-10-06,148955.0
1985-10-07,148105.0
1985-10-08,148126.0
1985-10-09,148317.0
1985-10-10,148423.0
1985-10-11,148785.0
1985-10-12,149296.0
1985-10-13,149489.0
1985-10-14,149959.0
1985-10-15,150195.0
1985-10-16,150388.0
1985-10-17,150516.0
1985-10-18,150709.0
1985-10-19,150838.0
1985-10-20,150989.0
1985-10-21,151118.0
1985-10-22,151290.0
1985-10-23,151376.0
1985-10-24,151399.0
1985-10-25,151527.0
1985-10-26,151613.0
1985-10-27,151679.0
1985-10-28,151743.0
1985-10-29,151829.0
1985-10-30,151959.0
1985-10-31,152024.0
1985-11-01,152110.0
1985-11-02,152132.0
1985-11-03,152219.0
1985-11-04,152306.0
1985-11-05,152413.0
1985-11-06,152349.0
1985-11-07,152283.0
1985-11-08,152197.0
1985-11-09,152197.0
1985-11-10,152110.0
1985-11-11,152024.0
1985-11-12,151980.0
1985-11-13,152176.0
1985-11-14,152413.0
1985-11-15,152392.0
1985-11-16,152349.0
1985-11-17,152370.0
1985-11-18,152413.0
1985-11-19,152761.0
1985-11-20,153107.0
1985-11-21,153260.0
1985-11-22,153412.0
1985-11-23,153521.0
1985-11-24,153630.0
1985-11-25,153717.0
1985-11-26,154044.0
1985-11-27,154394.0
1985-11-28,154591.0
1985-11-29,154810.0
1985-11-30,155051.0
1985-12-01,155314.0
1985-12-02,155556.0
1985-12-03,155710.0
1985-12-04,155886.0
1985-12-05,155886.0
1985-12-06,155908.0
1985-12-07,155886.0
1985-12-08,155864.0
1985-12-09,155841.0
1985-12-10,155820.0
1985-12-11,155776.0
1985-12-12,155688.0
1985-12-13,155600.0
1985-12-14,155622.0
1985-12-15,155644.0
1985-12-16,155666.0
1985-12-17,155776.0
1985-12-18,155754.0
1985-12-19,155930.0
1985-12-20,156106.0
1985-12-21,156150.0
1985-12-22,156194.0
1985-12-23,156261.0
1985-12-24,156371.0
1985-12-25,156481.0
1985-12-26,156614.0
1985-12-27,156658.0
1985-12-28,156769.0
1985-12-29,156879.0
1985-12-30,156968.0
1985-12-31,157078.0
1986-01-01,157189.0
1986-01-02,157278.0
1986-01-03,157323.0
1986-01-04,157411.0
1986-01-05,157499.0
1986-01-06,157588.0
1986-01-07,157588.0
1986-01-08,157611.0
1986-01-09,157721.0
1986-01-10,157833.0
1986-01-11,157922.0
1986-01-12,158010.0
1986-01-13,158099.0
1986-01-14,158143.0
1986-01-15,158166.0
1986-01-16,158255.0
1986-01-17,158366.0
1986-01-18,158456.0
1986-01-19,158545.0
1986-01-20,158634.0
1986-01-21,158701.0
1986-01-22,158768.0
1986-01-23,158835.0
1986-01-24,158924.0
1986-01-25,158992.0
1986-01-26,159058.0
1986-01-27,159125.0
1986-01-28,159148.0
1986-01-29,159259.0
1986-01-30,159349.0
1986-01-31,159438.0
1986-02-01,159528.0
1986-02-02,159617.0
1986-02-03,159707.0
1986-02-04,159842.0
1986-02-05,159909.0
1986-02-06,159977.0
1986-02-07,160066.0
1986-02-08,160133.0
1986-02-09,160223.0
1986-02-10,160313.0
1986-02-11,160448.0
1986-02-12,160560.0
1986-02-13,160741.0
1986-02-14,160943.0
1986-02-15,161101.0
1986-02-16,161259.0
1986-02-17,161417.0
1986-02-18,161552.0
1986-02-19,161643.0
1986-02-20,161847.0
1986-02-21,162073.0
1986-02-22,162209.0
1986-02-23,162345.0
1986-02-24,162481.0
1986-02-25,162981.0
1986-02-26,163597.0
1986-02-27,164284.0
1986-02-28,165113.0
1986-03-01,166040.0
1986-03-02,167045.0
1986-03-03,167821.0
1986-03-04,168957.0
1986-03-05,170222.0
1986-03-06,171669.0
1986-03-07,173203.0
1986-03-08,174679.0
1986-03-09,176169.0
1986-03-10,177246.0
1986-03-11,178202.0
1986-03-12,178987.0
1986-03-13,179698.0
1986-03-14,180336.0
1986-03-15,180952.0
1986-03-16,181439.0
1986-03-17,181929.0
1986-03-18,182548.0
1986-03-19,183067.0
1986-03-20,183431.0
1986-03-21,184083.0
1986-03-22,184684.0
1986-03-23,185787.0
1986-03-24,187588.0
1986-03-25,189781.0
1986-03-26,191428.0
1986-03-27,193718.0
1986-03-28,196531.0
1986-03-29,199268.0
1986-03-30,202664.0
1986-03-31,205532.0
1986-04-01,207268.0
1986-04-02,213646.0
1986-04-03,216789.0
1986-04-04,218937.0
1986-04-05,221657.0
1986-04-06,224597.0
1986-04-07,227921.0
1986-04-08,230014.0
1986-04-09,231449.0
1986-04-10,232058.0
1986-04-11,232122.0
1986-04-12,232155.0
1986-04-13,231706.0
1986-04-14,231801.0
1986-04-15,232475.0
1986-04-16,233377.0
1986-04-17,233055.0
1986-04-18,232284.0
1986-04-19,232058.0
1986-04-20,232380.0
1986-04-21,233344.0
1986-04-22,233088.0
1986-04-23,233442.0
1986-04-24,232701.0
1986-04-25,232380.0
1986-04-26,232766.0
1986-04-27,232572.0
1986-04-28,233023.0
1986-04-29,233409.0
1986-04-30,233538.0
1986-05-01,233959.0
1986-05-02,234249.0
1986-05-03,235058.0
1986-05-04,234443.0
1986-05-05,232766.0
1986-05-06,232766.0
1986-05-07,233217.0
1986-05-08,233442.0
1986-05-09,233829.0
1986-05-10,234151.0
1986-05-11,234702.0
1986-05-12,235123.0
1986-05-13,235805.0
1986-05-14,236846.0
1986-05-15,237728.0
1986-05-16,238547.0
1986-05-17,238942.0
1986-05-18,239600.0
1986-05-19,241084.0
1986-05-20,243610.0
1986-05-21,246289.0
1986-05-22,248926.0
1986-05-23,251512.0
1986-05-24,254014.0
1986-05-25,256256.0
1986-05-26,259209.0
1986-05-27,262115.0
1986-05-28,264901.0
1986-05-29,267242.0
1986-05-30,268990.0
1986-05-31,269706.0
1986-06-01,271102.0
1986-06-02,272289.0
1986-06-03,274671.0
1986-06-04,278631.0
1986-06-05,281852.0
1986-06-06,284468.0
1986-06-07,284690.0
1986-06-08,284136.0
1986-06-09,283805.0
1986-06-10,284062.0
1986-06-11,284062.0
1986-06-12,284210.0
1986-06-13,284690.0
1986-06-14,285060.0
1986-06-15,285431.0
1986-06-16,285541.0
1986-06-17,285579.0
1986-06-18,285541.0
1986-06-19,285246.0
1986-06-20,285208.0
1986-06-21,284986.0
1986-06-22,284876.0
1986-06-23,285579.0
1986-06-24,286357.0
1986-06-25,287769.0
1986-06-26,288999.0
1986-06-27,290083.0
1986-06-28,290794.0
1986-06-29,290981.0
1986-06-30,291019.0
1986-07-01,290833.0
1986-07-02,291320.0
1986-07-03,291507.0
1986-07-04,292070.0
1986-07-05,292672.0
1986-07-06,292710.0
1986-07-07,292710.0
1986-07-08,292934.0
1986-07-09,293501.0
1986-07-10,293613.0
1986-07-11,293387.0
1986-07-12,292973.0
1986-07-13,293010.0
1986-07-14,293010.0
1986-07-15,293689.0
1986-07-16,293613.0
1986-07-17,293501.0
1986-07-18,293275.0
1986-07-19,293387.0
1986-07-20,293425.0
1986-07-21,293538.0
1986-07-22,293991.0
1986-07-23,294103.0
1986-07-24,293952.0
1986-07-25,293801.0
1986-07-26,293764.0
1986-07-27,293538.0
1986-07-28,293275.0
1986-07-29,293124.0
1986-07-30,292822.0
1986-07-31,292521.0
1986-08-01,292108.0
1986-08-02,291620.0
1986-08-03,291395.0
1986-08-04,290833.0
1986-08-05,290383.0
1986-08-06,290195.0
1986-08-07,290008.0
1986-08-08,289784.0
1986-08-09,289448.0
1986-08-10,289149.0
1986-08-11,288888.0
1986-08-12,288850.0
1986-08-13,288701.0
1986-08-14,288515.0
1986-08-15,288216.0
1986-08-16,288142.0
1986-08-17,287956.0
1986-08-18,287658.0
1986-08-19,287435.0
1986-08-20,287471.0
1986-08-21,287360.0
1986-08-22,287248.0
1986-08-23,287212.0
1986-08-24,287175.0
1986-08-25,287063.0
1986-08-26,286952.0
1986-08-27,286655.0
1986-08-28,286319.0
1986-08-29,286024.0
1986-08-30,285579.0
1986-08-31,285098.0
1986-09-01,284616.0
1986-09-02,284136.0
1986-09-03,283619.0
1986-09-04,282957.0
1986-09-05,282367.0
1986-09-06,281816.0
1986-09-07,281413.0
1986-09-08,280935.0
1986-09-09,281560.0
1986-09-10,282405.0
1986-09-11,282441.0
1986-09-12,282367.0
1986-09-13,282147.0
1986-09-14,281963.0
1986-09-15,281705.0
1986-09-16,281192.0
1986-09-17,280825.0
1986-09-18,280423.0
1986-09-19,280056.0
1986-09-20,279654.0
1986-09-21,279142.0
1986-09-22,279215.0
1986-09-23,280092.0
1986-09-24,281302.0
1986-09-25,282184.0
1986-09-26,282698.0
1986-09-27,283140.0
1986-09-28,283583.0
1986-09-29,284210.0
1986-09-30,284802.0
1986-10-01,284912.0
1986-10-02,285467.16
1986-10-03,285875.7
1986-10-04,286172.12
1986-10-05,286615.0
1986-10-06,286875.28
1986-10-07,287171.75
1986-10-08,287467.88
1986-10-09,288029.12
1986-10-10,288588.56
1986-10-11,289820.4
1986-10-12,290454.56
1986-10-13,291276.75
1986-10-14,290902.84
1986-10-15,290828.12
1986-10-16,290678.72
1986-10-17,290715.16
1986-10-18,290416.3
1986-10-19,290341.6
1986-10-20,290192.16
1986-10-21,289895.12
1986-10-22,290266.88
1986-10-23,290155.72
1986-10-24,290117.44
1986-10-25,289895.12
1986-10-26,289745.72
1986-10-27,289707.44
1986-10-28,289820.4
1986-10-29,289895.12
1986-10-30,289931.56
1986-10-31,290192.16
1986-11-01,291201.4
1986-11-02,291767.34
1986-11-03,291954.75
1986-11-04,291879.4
1986-11-05,291653.4
1986-11-06,291466.0
1986-11-07,291014.0
1986-11-08,290828.12
1986-11-09,290529.28
1986-11-10,290192.16
1986-11-11,290604.0
1986-11-12,291014.0
1986-11-13,291315.34
1986-11-14,291616.66
1986-11-15,291767.34
1986-11-16,291842.66
1986-11-17,292142.16
1986-11-18,293685.6
1986-11-19,294363.6
1986-11-20,294288.25
1986-11-21,294664.9
1986-11-22,294814.06
1986-11-23,294514.25
1986-11-24,294023.66
1986-11-25,294212.9
1986-11-26,294249.66
1986-11-27,294249.66
1986-11-28,294288.25
1986-11-29,294288.25
1986-11-30,294325.0
1986-12-01,294174.34
1986-12-02,294023.66
1986-12-03,294099.0
1986-12-04,293911.6
1986-12-05,293911.6
1986-12-06,293873.0
1986-12-07,293873.0
1986-12-08,293799.5
1986-12-09,293724.16
1986-12-10,293610.25
1986-12-11,293534.9
1986-12-12,293534.9
1986-12-13,293573.5
1986-12-14,293573.5
1986-12-15,293685.6
1986-12-16,293836.25
1986-12-17,293911.6
1986-12-18,293986.9
1986-12-19,293986.9
1986-12-20,293986.9
1986-12-21,293986.9
1986-12-22,293836.25
1986-12-23,293648.84
1986-12-24,293685.6
1986-12-25,293724.16
1986-12-26,293610.25
1986-12-27,293498.16
1986-12-28,293384.25
1986-12-29,293459.6
1986-12-30,293422.84
1986-12-31,293384.25
1987-01-01,293422.84
1987-01-02,293459.6
1987-01-03,293534.9
1987-01-04,293610.25
1987-01-05,293573.5
1987-01-06,293573.5
1987-01-07,293610.25
1987-01-08,293648.84
1987-01-09,293610.25
1987-01-10,293573.5
1987-01-11,293534.9
1987-01-12,293573.5
1987-01-13,293610.25
1987-01-14,293724.16
1987-01-15,293836.25
1987-01-16,293760.9
1987-01-17,293685.6
1987-01-18,293648.84
1987-01-19,293724.16
1987-01-20,293685.6
1987-01-21,293610.25
1987-01-22,293534.9
1987-01-23,293573.5
1987-01-24,293610.25
1987-01-25,293648.84
1987-01-26,293573.5
1987-01-27,293610.25
1987-01-28,293648.84
1987-01-29,293685.6
1987-01-30,293648.84
1987-01-31,293573.5
1987-02-01,293498.16
1987-02-02,293459.6
1987-02-03,293422.84
1987-02-04,293347.5
1987-02-05,293308.9
1987-02-06,293308.9
1987-02-07,293308.9
1987-02-08,293347.5
1987-02-09,293422.84
1987-02-10,293724.16
1987-02-11,293799.5
1987-02-12,293986.9
1987-02-13,294174.34
1987-02-14,294363.6
1987-02-15,294551.0
1987-02-16,294551.0
1987-02-17,294475.66
1987-02-18,294325.0
1987-02-19,294249.66
1987-02-20,294099.0
1987-02-21,293986.9
1987-02-22,293873.0
1987-02-23,293760.9
1987-02-24,293873.0
1987-02-25,293986.9
1987-02-26,293948.34
1987-02-27,293799.5
1987-02-28,293648.84
1987-03-01,293498.16
1987-03-02,293498.16
1987-03-03,293610.25
1987-03-04,293685.6
1987-03-05,293799.5
1987-03-06,294137.6
1987-03-07,294589.6
1987-03-08,294740.25
1987-03-09,294551.0
1987-03-10,294174.34
1987-03-11,294137.6
1987-03-12,294137.6
1987-03-13,294400.34
1987-03-14,294589.6
1987-03-15,294701.66
1987-03-16,294212.9
1987-03-17,293986.9
1987-03-18,294099.0
1987-03-19,294023.66
1987-03-20,293760.9
1987-03-21,293724.16
1987-03-22,293459.6
1987-03-23,293272.16
1987-03-24,292858.75
1987-03-25,292443.5
1987-03-26,291991.5
1987-03-27,291767.34
1987-03-28,291390.66
1987-03-29,291014.0
1987-03-30,290939.28
1987-03-31,291089.34
1987-04-01,291653.4
1987-04-02,292105.4
1987-04-03,293384.25
1987-04-04,293121.5
1987-04-05,292970.84
1987-04-06,292970.84
1987-04-07,293196.84
1987-04-08,294212.9
1987-04-09,295156.78
1987-04-10,294551.0
1987-04-11,293272.16
1987-04-12,292406.75
1987-04-13,292518.84
1987-04-14,293384.25
1987-04-15,295914.47
1987-04-16,299374.1
1987-04-17,301822.62
1987-04-18,303977.16
1987-04-19,305633.6
1987-04-20,307029.16
1987-04-21,308272.3
1987-04-22,310725.3
1987-04-23,313114.75
1987-04-24,314568.9
1987-04-25,316938.7
1987-04-26,318961.38
1987-04-27,321309.53
1987-04-28,323792.62
1987-04-29,326403.9
1987-04-30,329234.22
1987-05-01,331389.72
1987-05-02,333346.6
1987-05-03,334081.2
1987-05-04,334696.97
1987-05-05,335642.2
1987-05-06,337081.1
1987-05-07,338894.22
1987-05-08,340341.94
1987-05-09,341170.94
1987-05-10,342579.94
1987-05-11,343958.0
1987-05-12,345544.03
1987-05-13,346883.88
1987-05-14,348860.03
1987-05-15,351602.84
1987-05-16,355206.8
1987-05-17,356917.7
1987-05-18,359010.38
1987-05-19,359912.47
1987-05-20,358626.47
1987-05-21,359395.25
1987-05-22,359267.0
1987-05-23,359139.72
1987-05-24,358712.0
1987-05-25,357558.22
1987-05-26,357599.94
1987-05-27,357387.12
1987-05-28,356917.7
1987-05-29,355994.0
1987-05-30,355185.0
1987-05-31,354418.0
1987-06-01,354418.0
1987-06-02,355397.0
1987-06-03,356976.0
1987-06-04,359502.0
1987-06-05,361137.0
1987-06-06,363811.0
1987-06-07,366326.0
1987-06-08,369246.0
1987-06-09,372492.0
1987-06-10,373108.0
1987-06-11,373328.0
1987-06-12,374518.0
1987-06-13,375314.0
1987-06-14,376420.0
1987-06-15,377262.0
1987-06-16,377643.53
1987-06-17,377243.66
1987-06-18,377600.06
1987-06-19,378310.75
1987-06-20,378445.5
1987-06-21,377910.84
1987-06-22,378089.06
1987-06-23,377910.84
1987-06-24,378399.84
1987-06-25,378488.97
1987-06-26,378043.44
1987-06-27,377510.97
1987-06-28,376532.22
1987-06-29,376841.56
1987-06-30,377332.75
1987-07-01,377865.22
1987-07-02,378178.2
1987-07-03,378178.2
1987-07-04,378132.53
1987-07-05,378089.06
1987-07-06,377954.3
1987-07-07,377821.75
1987-07-08,377510.97
1987-07-09,376887.22
1987-07-10,376355.47
1987-07-11,375782.03
1987-07-12,375031.8
1987-07-13,374678.28